Overview Statistics Trail Chart Weather Telemetry Raw packets
 

This is the latest recevied weather packets stored in our database for station/object K8WEH. If no packets are shown the sender has not sent any weather packets the latest 10 day(s).

<< 1 2 3 4 5 6 >>
Time Temp. Humidity Pressure Rain* Wind** Luminosity Snow
1788615344 22.22° C 48% 1016.2 hPa 0 mm - - -
1788615044 22.22° C 46% 1016.4 hPa 0 mm - - -
1788614744 22.22° C 50% 1016.4 hPa 0 mm - - -
1788614445 22.22° C 54% 1016.3 hPa 0 mm - - -
1788614145 22.22° C 54% 1016.3 hPa 0 mm - - -
1788613843 22.22° C 54% 1016.4 hPa 0 mm - - -
1788613545 22.22° C 55% 1016.6 hPa 0 mm - - -
1788613245 22.22° C 56% 1016.6 hPa 0 mm - - -
1788612943 22.22° C 58% 1016.7 hPa 0 mm - - -
1788612643 22.22° C 57% 1016.6 hPa 0 mm - - -
1788612344 22.22° C 59% 1016.5 hPa 0 mm - - -
1788612041 22.22° C 57% 1016.4 hPa 0 mm - - -
1788611743 22.22° C 57% 1016.3 hPa 0 mm - - -
1788611441 22.22° C 58% 1016.2 hPa 0 mm - - -
1788611141 22.22° C 56% 1016.1 hPa 0 mm - - -
1788610840 22.22° C 58% 1016.2 hPa 0 mm - - -
1788610541 22.22° C 57% 1016.1 hPa 0 mm - - -
1788610241 22.22° C 57% 1016.3 hPa 0 mm - - -
1788609940 22.22° C 56% 1016.4 hPa 0 mm - - -
1788609639 22.22° C 53% 1016.6 hPa 0 mm - - -
1788609340 22.22° C 53% 1016.5 hPa 0 mm - - -
1788609039 22.22° C 51% 1016.5 hPa 0 mm - - -
1788608743 22.22° C 44% 1016.6 hPa 0 mm - - -
1788608437 22.22° C 38% 1016.4 hPa 0 mm - - -
1788608134 21.67° C 31% 1016.3 hPa 0 mm - - -

* Rain latest hour (hover to see other rain measurements)
** Current wind speed in m/s (hover to see current wind gust speed)